Lehigh Valley International Airport
KABE : now visible

Airfield :











YOU CAN JOIN US ON...

 
LOGIN :

Register | Disclaimer

   EN    FR    IT 

 









Legend :    VFR   Marginal VFR   IFR   Intensive IFR   Very Intensive IFR
Visi :
Ceiling :
>= 8 km
>= 3000ft
5 to 8 km
1000 to 3000 ft
1500m to 5 km
500 to 1000 ft
800 to 1500m
200 to 500 ft
< 800m
< 200 ft
Symbols :   Thunderstorms  Fog  Heavy snow  Heavy precipitations  Wind > 20 kt






- Airport Elevation : 393 ft
- IATA code : ABE


KABE - Lehigh Valley International

CURRENT METAR :
  • 230751Z 31018G26KT 10SM OVC055 M02/M14 A2998 RMK AO2 PK WND 31026/0742 SLP156 T10171139

EXPIRED METARs :
  • 230651Z AUTO 31015G23KT 10SM OVC055 M01/M13 A2997 RMK AO2 PK WND 31027/0620 SLP152 T10111128
  • 230551Z 31013G22KT 10SM OVC055 M01/M11 A2994 RMK AO2 SLP140 60000 T10061106 10022 21006 53012

TAF KABE
Valid from the 23 at 06:00 until the 24 at 06:00 UTC


230528Z 2306/2406 29012G20KT P6SM BKN050
FM231500 31018G28KT P6SM BKN040
FM232100 31016G26KT P6SM FEW060
FM240000 30012KT P6SM SKC
KZNY FIR / North America



MET'MAP, your aeronautical weather chart ! - Copyright ORBIFLY December 2007 - Disclaimer

ORBIFLY MET'MAP TEAM :

Programming & Development : Alexandra Zaïnal
Concept & original design : Baudouin d'Aumeries
Assistance for programming : Marc-Olivier Méhu
Technical & hardware support : Manuel Goepfert

Contact : metmap@orbifly.com




SOURCES & CREDITS :

   NOAA       Earth
Advisory